ボク彗星

C/2022 U4 ( Bok )

English version
Home page
Updated on August 17, 2023

---------------------------------------------------------------------

・ プロフィール

発見日 2022年10月26日
発見光度 20.2等
発見者 Bok NEO Survey

・ 写真集

・ 軌道要素

Epoch 2023 Feb. 25.0 TT = JDT 2460000.5
T 2023 Aug. 3.68506 TT                                  Rudenko
q   2.8983742            (2000.0)            P               Q
z  +0.0002737      Peri.   89.00817     -0.46213423     +0.67320976
 +/-0.0000015      Node   132.93032     -0.68629306     -0.68374651
e   0.9992068      Incl.   52.03622     +0.56163493     -0.28156584
>From 546 observations 2022 Jan. 24-2023 July 2, mean residual 0".5.

・ 光度変化

        m1 = 10.0 + 5 logΔ + 11.0 log r

---------------------------------------------------------------------

軌道要素はM.P.E.C. 2023-N16に掲載されたものです。
光度グラフはComet for Windowsで作成したものです。

---------------------------------------------------------------------

Copyright(C) Seiichi Yoshida (comet@aerith.net). All rights reserved.